Saint Bonnet de Bellac- Haute Vienne - France
Donnes mto: samedi, 13/10/2012
Date Horaire Temp. E. Hum. E. P.atmo. Pluie Vent Direction Direction Ensoleilleme Solaire P. de rose Temp au vent Rafales
13/10/2012 00:00 7,4 C 88 % 1016,8 hPa 0,0 mm 0,0 km/h (0 Bft) S-SO 202 0 min 0 W/m 5,5 C 7,4 C 0,0 km/h (0 Bft)
13/10/2012 00:10 7,4 C 89 % 1016,7 hPa 0,0 mm 0,0 km/h (0 Bft) S-SO 202 0 min 0 W/m 5,7 C 7,4 C 2,9 km/h (1 Bft)
13/10/2012 00:20 7,4 C 89 % 1016,7 hPa 0,0 mm 0,4 km/h (0 Bft) S 180 0 min 0 W/m 5,7 C 7,4 C 3,2 km/h (1 Bft)
13/10/2012 00:30 7,4 C 89 % 1016,5 hPa 0,0 mm 0,0 km/h (0 Bft) S-SO 202 0 min 0 W/m 5,7 C 7,4 C 0,0 km/h (0 Bft)
13/10/2012 00:40 7,3 C 89 % 1016,5 hPa 0,0 mm 0,0 km/h (0 Bft) S-SO 202 0 min 0 W/m 5,6 C 7,3 C 0,0 km/h (0 Bft)
13/10/2012 00:50 7,1 C 88 % 1016,5 hPa 0,0 mm 0,0 km/h (0 Bft) S-SO 202 0 min 0 W/m 5,2 C 7,1 C 0,0 km/h (0 Bft)
13/10/2012 01:00 6,9 C 88 % 1016,4 hPa 0,0 mm 0,0 km/h (0 Bft) S-SO 202 0 min 0 W/m 5,1 C 6,9 C 0,0 km/h (0 Bft)
13/10/2012 01:10 6,8 C 88 % 1016,4 hPa 0,0 mm 0,0 km/h (0 Bft) S-SO 202 0 min 0 W/m 5,0 C 6,8 C 0,0 km/h (0 Bft)
13/10/2012 01:20 6,7 C 89 % 1016,3 hPa 0,0 mm 0,0 km/h (0 Bft) S-SO 202 0 min 0 W/m 5,0 C 6,7 C 0,0 km/h (0 Bft)
13/10/2012 01:30 6,7 C 89 % 1016,2 hPa 0,0 mm 0,0 km/h (0 Bft) S-SO 202 0 min 0 W/m 5,0 C 6,7 C 0,0 km/h (0 Bft)
13/10/2012 01:40 6,6 C 89 % 1016,1 hPa 0,0 mm 0,0 km/h (0 Bft) S 180 0 min 0 W/m 4,9 C 6,6 C 0,0 km/h (0 Bft)
13/10/2012 01:50 6,5 C 89 % 1016,0 hPa 0,0 mm 0,0 km/h (0 Bft) S 180 0 min 0 W/m 4,8 C 6,5 C 0,0 km/h (0 Bft)
13/10/2012 02:00 6,4 C 89 % 1016,0 hPa 0,0 mm 0,0 km/h (0 Bft) S 180 0 min 0 W/m 4,7 C 6,4 C 0,0 km/h (0 Bft)
13/10/2012 02:10 6,3 C 89 % 1015,8 hPa 0,0 mm 0,0 km/h (0 Bft) S-SE 157 0 min 0 W/m 4,6 C 6,3 C 0,0 km/h (0 Bft)
13/10/2012 02:20 6,2 C 89 % 1015,7 hPa 0,0 mm 0,0 km/h (0 Bft) S-SE 157 0 min 0 W/m 4,5 C 6,2 C 0,0 km/h (0 Bft)
13/10/2012 02:30 6,0 C 89 % 1015,7 hPa 0,0 mm 0,0 km/h (0 Bft) S-SE 157 0 min 0 W/m 4,3 C 6,0 C 0,0 km/h (0 Bft)
13/10/2012 02:40 5,8 C 89 % 1015,7 hPa 0,0 mm 0,0 km/h (0 Bft) S-SE 157 0 min 0 W/m 4,1 C 5,8 C 0,0 km/h (0 Bft)
13/10/2012 02:50 5,6 C 89 % 1015,6 hPa 0,0 mm 0,0 km/h (0 Bft) S-SE 157 0 min 0 W/m 3,9 C 5,6 C 0,0 km/h (0 Bft)
13/10/2012 03:02 5,4 C 89 % 1015,6 hPa 0,0 mm 0,0 km/h (0 Bft) S-SE 157 0 min 0 W/m 3,7 C 5,4 C 0,0 km/h (0 Bft)
13/10/2012 03:10 5,4 C 89 % 1015,5 hPa 0,0 mm 0,7 km/h (0 Bft) SE 135 0 min 0 W/m 3,7 C 5,4 C 0,7 km/h (0 Bft)
13/10/2012 03:20 5,5 C 89 % 1015,4 hPa 0,0 mm 0,0 km/h (0 Bft) SE 135 0 min 0 W/m 3,8 C 5,5 C 0,0 km/h (0 Bft)
13/10/2012 03:30 5,6 C 89 % 1015,4 hPa 0,0 mm 0,0 km/h (0 Bft) SE 135 0 min 0 W/m 3,9 C 5,6 C 0,0 km/h (0 Bft)
13/10/2012 03:40 5,4 C 89 % 1015,2 hPa 0,0 mm 0,0 km/h (0 Bft) SE 135 0 min 0 W/m 3,7 C 5,4 C 0,0 km/h (0 Bft)
13/10/2012 03:50 5,4 C 89 % 1015,1 hPa 0,0 mm 0,0 km/h (0 Bft) E-SE 112 0 min 0 W/m 3,7 C 5,4 C 2,9 km/h (1 Bft)
13/10/2012 04:00 5,4 C 90 % 1015,0 hPa 0,0 mm 0,4 km/h (0 Bft) E-SE 112 0 min 0 W/m 3,9 C 5,4 C 3,2 km/h (1 Bft)
13/10/2012 04:10 5,6 C 90 % 1014,9 hPa 0,0 mm 0,0 km/h (0 Bft) SE 135 0 min 0 W/m 4,1 C 5,6 C 0,0 km/h (0 Bft)
13/10/2012 04:20 5,7 C 90 % 1014,8 hPa 0,0 mm 0,0 km/h (0 Bft) E 90 0 min 0 W/m 4,2 C 5,7 C 1,4 km/h (1 Bft)
13/10/2012 04:30 5,7 C 90 % 1014,7 hPa 0,0 mm 0,0 km/h (0 Bft) E-SE 112 0 min 0 W/m 4,2 C 5,7 C 0,0 km/h (0 Bft)
13/10/2012 04:40 5,6 C 90 % 1014,7 hPa 0,0 mm 0,0 km/h (0 Bft) E-SE 112 0 min 0 W/m 4,1 C 5,6 C 0,0 km/h (0 Bft)
13/10/2012 04:50 5,5 C 90 % 1014,7 hPa 0,0 mm 2,2 km/h (1 Bft) E 90 0 min 0 W/m 4,0 C 5,5 C 2,9 km/h (1 Bft)
13/10/2012 05:00 5,6 C 90 % 1014,6 hPa 0,0 mm 1,1 km/h (1 Bft) E 90 0 min 0 W/m 4,1 C 5,6 C 3,6 km/h (1 Bft)
13/10/2012 05:10 5,8 C 90 % 1014,6 hPa 0,0 mm 2,5 km/h (1 Bft) E-SE 112 0 min 0 W/m 4,3 C 5,8 C 4,0 km/h (1 Bft)
13/10/2012 05:20 5,9 C 90 % 1014,3 hPa 0,0 mm 1,8 km/h (1 Bft) E 90 0 min 0 W/m 4,4 C 5,9 C 4,0 km/h (1 Bft)
13/10/2012 05:30 6,0 C 91 % 1014,3 hPa 0,0 mm 0,0 km/h (0 Bft) E 90 0 min 0 W/m 4,6 C 6,0 C 0,0 km/h (0 Bft)
13/10/2012 05:40 6,0 C 91 % 1014,2 hPa 0,0 mm 0,0 km/h (0 Bft) E-SE 112 0 min 0 W/m 4,6 C 6,0 C 3,2 km/h (1 Bft)
13/10/2012 05:50 6,1 C 91 % 1014,1 hPa 0,0 mm 0,0 km/h (0 Bft) E-SE 112 0 min 0 W/m 4,7 C 6,1 C 0,0 km/h (0 Bft)
13/10/2012 06:00 6,3 C 91 % 1013,9 hPa 0,0 mm 0,4 km/h (0 Bft) E-SE 112 0 min 0 W/m 4,9 C 6,3 C 0,4 km/h (0 Bft)
13/10/2012 06:10 6,3 C 91 % 1013,8 hPa 0,0 mm 0,7 km/h (0 Bft) SE 135 0 min 0 W/m 4,9 C 6,3 C 4,0 km/h (1 Bft)
13/10/2012 06:20 6,5 C 92 % 1013,8 hPa 0,0 mm 0,7 km/h (0 Bft) E-SE 112 0 min 0 W/m 5,3 C 6,5 C 3,6 km/h (1 Bft)
13/10/2012 06:30 6,6 C 92 % 1013,7 hPa 0,0 mm 0,7 km/h (0 Bft) E-SE 112 0 min 0 W/m 5,4 C 6,6 C 1,4 km/h (1 Bft)
13/10/2012 06:40 6,6 C 92 % 1013,6 hPa 0,0 mm 0,0 km/h (0 Bft) E-SE 112 0 min 0 W/m 5,4 C 6,6 C 0,0 km/h (0 Bft)
13/10/2012 06:50 6,8 C 92 % 1013,6 hPa 0,0 mm 0,0 km/h (0 Bft) E-SE 112 0 min 0 W/m 5,6 C 6,8 C 0,0 km/h (0 Bft)
13/10/2012 07:00 6,8 C 92 % 1013,5 hPa 0,0 mm 0,0 km/h (0 Bft) E-SE 112 0 min 0 W/m 5,6 C 6,8 C 0,0 km/h (0 Bft)
13/10/2012 07:10 6,9 C 92 % 1013,5 hPa 0,0 mm 0,0 km/h (0 Bft) SE 135 0 min 0 W/m 5,7 C 6,9 C 0,0 km/h (0 Bft)
13/10/2012 07:20 7,2 C 92 % 1013,4 hPa 0,0 mm 0,0 km/h (0 Bft) S 180 0 min 0 W/m 6,0 C 7,2 C 0,0 km/h (0 Bft)
13/10/2012 07:30 7,6 C 92 % 1013,4 hPa 0,0 mm 2,5 km/h (1 Bft) S-SO 202 0 min 0 W/m 6,4 C 7,6 C 4,3 km/h (1 Bft)
13/10/2012 07:40 7,9 C 92 % 1013,3 hPa 0,0 mm 3,6 km/h (1 Bft) S 180 0 min 0 W/m 6,7 C 7,9 C 6,8 km/h (2 Bft)
13/10/2012 07:50 8,3 C 92 % 1013,1 hPa 0,0 mm 1,8 km/h (1 Bft) O-SO 247 0 min 0 W/m 7,1 C 8,3 C 4,0 km/h (1 Bft)
13/10/2012 08:00 8,5 C 91 % 1013,1 hPa 0,0 mm 0,4 km/h (0 Bft) SO 225 0 min 0 W/m 7,1 C 8,5 C 3,6 km/h (1 Bft)
13/10/2012 08:10 8,8 C 90 % 1013,0 hPa 0,0 mm 4,3 km/h (1 Bft) S-SO 202 0 min 0 W/m 7,3 C 8,8 C 4,3 km/h (1 Bft)
13/10/2012 08:20 8,9 C 89 % 1013,2 hPa 0,0 mm 4,0 km/h (1 Bft) S-SO 202 0 min 0 W/m 7,2 C 8,9 C 7,2 km/h (2 Bft)
13/10/2012 08:30 9,1 C 89 % 1013,2 hPa 0,0 mm 2,9 km/h (1 Bft) SO 225 0 min 0 W/m 7,4 C 9,1 C 4,3 km/h (1 Bft)
13/10/2012 08:40 9,1 C 89 % 1013,2 hPa 0,0 mm 4,3 km/h (1 Bft) S-SO 202 0 min 0 W/m 7,4 C 9,1 C 4,3 km/h (1 Bft)
13/10/2012 08:50 9,3 C 88 % 1013,2 hPa 0,0 mm 1,8 km/h (1 Bft) SO 225 0 min 0 W/m 7,4 C 9,3 C 4,3 km/h (1 Bft)
13/10/2012 09:00 9,4 C 87 % 1013,4 hPa 0,0 mm 4,3 km/h (1 Bft) SO 225 0 min 0 W/m 7,3 C 9,4 C 6,5 km/h (2 Bft)
13/10/2012 09:10 9,6 C 87 % 1013,1 hPa 0,0 mm 1,4 km/h (1 Bft) S-SE 157 0 min 0 W/m 7,5 C 9,6 C 4,3 km/h (1 Bft)
13/10/2012 09:20 9,8 C 87 % 1013,1 hPa 0,0 mm 4,0 km/h (1 Bft) S-SO 202 0 min 0 W/m 7,7 C 9,8 C 8,6 km/h (2 Bft)
13/10/2012 09:30 10,2 C 87 % 1013,1 hPa 0,0 mm 2,2 km/h (1 Bft) SO 225 0 min 0 W/m 8,1 C 10,2 C 4,0 km/h (1 Bft)
13/10/2012 09:40 10,9 C 84 % 1013,2 hPa 0,0 mm 5,8 km/h (2 Bft) S-SE 157 0 min 0 W/m 8,3 C 10,9 C 9,7 km/h (2 Bft)
13/10/2012 09:50 11,1 C 84 % 1013,2 hPa 0,0 mm 7,2 km/h (2 Bft) S-SO 202 0 min 0 W/m 8,5 C 11,1 C 12,6 km/h (3 Bft)
13/10/2012 10:00 11,1 C 83 % 1013,2 hPa 0,0 mm 6,5 km/h (2 Bft) S 180 0 min 0 W/m 8,3 C 11,1 C 10,1 km/h (2 Bft)
13/10/2012 10:10 11,1 C 83 % 1013,3 hPa 0,0 mm 5,8 km/h (2 Bft) S-SO 202 0 min 0 W/m 8,3 C 11,1 C 8,6 km/h (2 Bft)
13/10/2012 10:20 11,1 C 82 % 1013,3 hPa 0,0 mm 3,2 km/h (1 Bft) S 180 0 min 0 W/m 8,1 C 11,1 C 6,1 km/h (2 Bft)
13/10/2012 10:30 11,4 C 82 % 1013,4 hPa 0,0 mm 6,8 km/h (2 Bft) SO 225 0 min 0 W/m 8,4 C 11,4 C 11,5 km/h (2 Bft)
13/10/2012 10:40 11,6 C 81 % 1013,4 hPa 0,0 mm 7,9 km/h (2 Bft) SO 225 0 min 0 W/m 8,5 C 11,6 C 10,4 km/h (2 Bft)
13/10/2012 10:50 11,9 C 81 % 1013,4 hPa 0,0 mm 7,9 km/h (2 Bft) SO 225 0 min 0 W/m 8,7 C 11,9 C 11,5 km/h (2 Bft)
13/10/2012 11:00 12,2 C 80 % 1013,2 hPa 0,0 mm 10,8 km/h (2 Bft) SO 225 0 min 0 W/m 8,9 C 12,2 C 16,9 km/h (3 Bft)
13/10/2012 11:10 12,4 C 79 % 1013,3 hPa 0,0 mm 7,9 km/h (2 Bft) SO 225 0 min 0 W/m 8,9 C 12,4 C 8,3 km/h (2 Bft)
13/10/2012 11:20 12,6 C 78 % 1013,4 hPa 0,0 mm 12,2 km/h (2 Bft) SO 225 0 min 0 W/m 8,9 C 12,6 C 12,2 km/h (2 Bft)
13/10/2012 11:30 12,6 C 78 % 1013,3 hPa 0,0 mm 9,7 km/h (2 Bft) SO 225 0 min 0 W/m 8,9 C 12,6 C 11,5 km/h (2 Bft)
13/10/2012 11:40 12,6 C 79 % 1013,2 hPa 0,0 mm 7,9 km/h (2 Bft) S-SO 202 0 min 0 W/m 9,1 C 12,6 C 14,0 km/h (3 Bft)
13/10/2012 11:50 13,1 C 78 % 1013,2 hPa 0,0 mm 11,5 km/h (2 Bft) SO 225 0 min 0 W/m 9,4 C 13,1 C 15,1 km/h (3 Bft)
13/10/2012 12:00 13,5 C 79 % 1013,2 hPa 0,0 mm 6,5 km/h (2 Bft) S-SO 202 0 min 0 W/m 9,9 C 13,5 C 10,1 km/h (2 Bft)
13/10/2012 12:10 14,5 C 75 % 1013,2 hPa 0,0 mm 7,2 km/h (2 Bft) S-SO 202 0 min 0 W/m 10,1 C 14,5 C 8,6 km/h (2 Bft)
13/10/2012 12:20 14,5 C 73 % 1013,1 hPa 0,0 mm 8,3 km/h (2 Bft) O-SO 247 0 min 0 W/m 9,7 C 14,5 C 8,3 km/h (2 Bft)
13/10/2012 12:30 14,7 C 73 % 1013,1 hPa 0,0 mm 13,0 km/h (3 Bft) S-SO 202 0 min 0 W/m 9,9 C 14,7 C 21,6 km/h (4 Bft)
13/10/2012 12:40 14,8 C 73 % 1013,1 hPa 0,0 mm 6,5 km/h (2 Bft) SO 225 0 min 0 W/m 10,0 C 14,8 C 6,5 km/h (2 Bft)
13/10/2012 12:50 14,8 C 73 % 1013,1 hPa 0,0 mm 12,2 km/h (2 Bft) S-SO 202 0 min 0 W/m 10,0 C 14,8 C 18,7 km/h (3 Bft)
13/10/2012 13:00 14,6 C 73 % 1013,1 hPa 0,0 mm 7,2 km/h (2 Bft) O-SO 247 0 min 0 W/m 9,8 C 14,6 C 10,4 km/h (2 Bft)
13/10/2012 13:10 14,5 C 73 % 1013,1 hPa 0,0 mm 7,9 km/h (2 Bft) S-SO 202 0 min 0 W/m 9,7 C 14,5 C 13,3 km/h (3 Bft)
13/10/2012 13:20 14,1 C 76 % 1013,0 hPa 0,0 mm 4,0 km/h (1 Bft) SO 225 0 min 0 W/m 9,9 C 14,1 C 4,3 km/h (1 Bft)
13/10/2012 13:30 13,6 C 77 % 1012,8 hPa 0,0 mm 7,9 km/h (2 Bft) SO 225 0 min 0 W/m 9,6 C 13,6 C 13,7 km/h (3 Bft)
13/10/2012 13:40 13,6 C 79 % 1012,7 hPa 0,0 mm 6,8 km/h (2 Bft) S-SO 202 0 min 0 W/m 10,0 C 13,6 C 8,3 km/h (2 Bft)
13/10/2012 13:50 13,8 C 79 % 1012,6 hPa 0,0 mm 5,0 km/h (1 Bft) S-SO 202 0 min 0 W/m 10,2 C 13,8 C 9,4 km/h (2 Bft)
13/10/2012 14:00 13,8 C 78 % 1012,4 hPa 0,0 mm 4,0 km/h (1 Bft) SO 225 0 min 0 W/m 10,0 C 13,8 C 5,8 km/h (2 Bft)
13/10/2012 14:10 13,8 C 78 % 1012,3 hPa 0,0 mm 7,9 km/h (2 Bft) SO 225 0 min 0 W/m 10,0 C 13,8 C 10,4 km/h (2 Bft)
13/10/2012 14:20 13,8 C 78 % 1012,4 hPa 0,0 mm 6,8 km/h (2 Bft) SO 225 0 min 0 W/m 10,0 C 13,8 C 14,4 km/h (3 Bft)
13/10/2012 14:30 13,8 C 78 % 1012,3 hPa 0,0 mm 17,6 km/h (3 Bft) S-SO 202 0 min 0 W/m 10,0 C 13,8 C 19,1 km/h (3 Bft)
13/10/2012 14:40 13,7 C 78 % 1012,1 hPa 0,0 mm 5,8 km/h (2 Bft) S-SO 202 0 min 0 W/m 9,9 C 13,7 C 9,7 km/h (2 Bft)
13/10/2012 14:50 13,8 C 79 % 1012,2 hPa 0,0 mm 6,8 km/h (2 Bft) S-SO 202 0 min 0 W/m 10,2 C 13,8 C 12,6 km/h (3 Bft)
13/10/2012 15:00 14,3 C 79 % 1012,0 hPa 0,0 mm 9,7 km/h (2 Bft) S-SO 202 0 min 0 W/m 10,7 C 14,3 C 12,6 km/h (3 Bft)
_ Min-Heure 04:00 13:10 15:00 - 07:20 - - - - 03:50 04:00 07:20
Minimum _ 5,4 C 73 % 1012,0 hPa - 0,0 km/h (0 Bft) - - - - 3,7 C 5,4 C 0,0 km/h (0 Bft)
_ Max-Heure 12:50 07:50 00:00 15:00 14:30 - - 15:00 15:00 15:00 12:50 12:30
Maximum _ 14,8 C 92 % 1016,8 hPa 0,0 mm 17,6 km/h
S-SO (3 Bft)
- - 0 min 0 W/m 10,7 C 14,8 C 21,6 km/h
S-SO (4 Bft)
Moyenne _ 9,2 C 86 % 1014,0 hPa #0,0 mm 3,4 km/h (1 Bft) S-SO - #0 min. 0 W/m 6,8 C 9,2 C 5,4 km/h (1 Bft)
Saint Bonnet de Bellac- Haute Vienne - France